CZ-4B R/B

Last updated on Mon Dec 15 2025 00:02:20 GMT+0000 (Coordinated Universal Time)

1 29507U 06046C 25348.08932331 .00005622 00000+0 29313-3 0 9995 2 29507 97.5737 28.2239 0033389 201.7209 158.2609 15.15890214 47071
UTC large
Height (km)
Speed (km/s)
/
Latitude / Longitude
Inclination (degrees)
Orbital Period (minutes)
Azimuth
Elevation
Range (km)
Doppler Factor

Next 0 passes for location: London (51.5072 / 0.1276)

Sorry there are no passes over London.